Coronel Enrique Soto Cano, Honduras

9:20 AM CST on February 08, 2016 (GMT -0600)
Coronel Enrique Soto Cano Air Base

Weather History for MHSC - August, 2013

Change the Weather History Date:

Tuesday, August 6, 2013

  Actual Average (MHTG) Record (MHTG)
Temperature  
Mean Temperature 78 °F -  
Max Temperature 88 °F 81 °F 89 °F (2004)
Min Temperature 69 °F 63 °F 59 °F (1996)
Cooling Degree Days 14    
Growing Degree Days 28 (Base 50)    
Moisture  
Dew Point 63 °F    
Average Humidity 57    
Maximum Humidity 94    
Minimum Humidity 27    
Precipitation  
Precipitation 0.39 in - - ()
Sea Level Pressure  
Sea Level Pressure 29.92 in    
Wind  
Wind Speed 9 mph ()    
Max Wind Speed 25 mph    
Max Gust Speed 70 mph    
Visibility 6.3 miles    
Events Rain , Thunderstorm    
Averages and records for this station are not official NWS values.
T = Trace of Precipitation, MM = Missing Value Source: Averaged Metar Reports

Daily Weather History Graph

Daily Weather History Graph

Search for Another Location

Airport or City:

Trip Planner

Search our weather history database for the weather conditions in past years. The results will help you decide how hot, cold, wet, or windy it might be!

Date:

Astronomy

Aug. 06, 2013 Rise Set
Actual Time 5:41 AM CST 6:23 PM CST
Civil Twilight 5:18 AM CST 6:45 PM CST
Nautical Twilight 4:52 AM CST 7:12 PM CST
Astronomical Twilight 4:25 AM CST 7:38 PM CST
Moon 5:23 AM CST (8/6) 6:11 PM CST (8/6)
Length of Visible Light 13h 26m
Length of Day
12h 42m
Waning Crescent, 0% of the Moon is Illuminated
Aug 6
Waning Crescent
Aug 6
New
Aug 14
First Quarter
Aug 20
Full
Aug 28
Last Quarter

Hourly Weather History & Observations

Time (CST) Temp. Heat Index Dew Point Humidity Pressure Visibility Wind Dir Wind Speed Gust Speed Precip Events Conditions
12:52 AM 73.4 °F - 69.8 °F 88% 30.04 in 6.2 mi NNE 11.5 mph - N/A   Clear
12:58 AM 73.6 °F - 68.9 °F 85% 29.90 in 6.2 mi North 11.5 mph - N/A   Clear
1:58 AM 73.2 °F - 68.7 °F 86% 29.88 in 6.2 mi NE 3.5 mph - N/A   Clear
2:58 AM 71.8 °F - 68.5 °F 89% 29.89 in 6.2 mi NNE 5.8 mph - N/A   Clear
3:58 AM 71.8 °F - 68.4 °F 89% 29.89 in 6.2 mi North 6.9 mph - N/A   Clear
4:58 AM 71.2 °F - 68.0 °F 89% 29.91 in 6.2 mi NNE 6.9 mph - N/A   Clear
5:58 AM 70.3 °F - 67.6 °F 91% 29.93 in 6.2 mi NE 6.9 mph - N/A   Clear
6:00 AM 70 °F - 67 °F 85%  in 7 mi North 6.9 mph - -   Haze
6:58 AM 73.8 °F - 67.5 °F 81% 29.93 in 6.2 mi NNE 8.1 mph - N/A   Clear
7:58 AM 76.8 °F - 66.6 °F 70% 30.05 in 6.2 mi North 6.9 mph - N/A   Clear
8:58 AM 80.1 °F 82.0 °F 65.5 °F 61% 29.92 in 6.2 mi NNW 8.1 mph - N/A   Clear
9:00 AM 77 °F - 65 °F 59%  in 9 mi North 11.5 mph - -   Haze
9:58 AM 82.6 °F 83.8 °F 63.3 °F 52% 29.92 in 6.2 mi Variable 4.6 mph - N/A   Clear
10:58 AM 85.5 °F 85.9 °F 62.1 °F 45% 29.90 in 6.2 mi WSW 6.9 mph - N/A   Partly Cloudy
11:58 AM 88.2 °F 88.4 °F 61.5 °F 41% 29.88 in 6.2 mi NNW 10.4 mph - N/A   Mostly Cloudy
12:00 PM 85 °F - 67 °F 45%  in 11 mi North 6.9 mph - -   Haze
12:58 PM 90.1 °F 89.3 °F 59.2 °F 35% 29.86 in 6.2 mi North 9.2 mph - N/A   Scattered Clouds
1:34 PM 91.4 °F 90.7 °F 59.0 °F 34% 29.99 in 6.2 mi East 12.7 mph 20.7 mph N/A   Clear
1:58 PM 92.1 °F 90.0 °F 54.7 °F 28% 29.84 in 6.2 mi North 11.5 mph - N/A   Clear
1:59 PM 93.2 °F 91.3 °F 55.4 °F 28% 29.98 in 6.2 mi NE 12.7 mph 23.0 mph N/A   Clear
2:17 PM 91.4 °F 89.4 °F 55.4 °F 29% 29.97 in 6.2 mi SE 25.3 mph - N/A   Squalls
2:18 PM 91.4 °F 89.4 °F 55.4 °F 29% 29.97 in 6.2 mi East 25.3 mph 70.2 mph N/A   Squalls
2:21 PM 91.4 °F 89.4 °F 55.4 °F 29% 29.98 in 6.2 mi SSE 17.3 mph 70.2 mph N/A   Clear
2:23 PM 93.2 °F 91.3 °F 55.4 °F 28% 29.98 in 6.2 mi East 17.3 mph 70.2 mph N/A   Clear
2:58 PM 91.9 °F 90.0 °F 55.6 °F 29% 29.83 in - ESE 12.7 mph - N/A   Clear
3:00 PM 86 °F - 70 °F 50%  in 9 mi South 5.8 mph - - Thunderstorm Thunderstorm
3:13 PM 91.4 °F 89.4 °F 55.4 °F 29% 29.97 in 1.0 mi East 12.7 mph 21.9 mph N/A   Haze
3:18 PM 91.4 °F 89.4 °F 55.4 °F 29% 29.97 in 6.2 mi ESE 12.7 mph 21.9 mph N/A   Clear
3:58 PM 91.6 °F 89.3 °F 54.5 °F 28% 29.83 in 6.2 mi ESE 12.7 mph - 0.04 in   Clear
4:58 PM 90.1 °F - 52.0 °F 27% 29.84 in 6.2 mi ESE 12.7 mph - N/A   Clear
5:58 PM 86.7 °F 85.3 °F 56.1 °F 35% 29.86 in 6.2 mi NNE 5.8 mph - N/A   Clear
6:00 PM 70 °F - 69 °F 94%  in 4 mi South 4.6 mph - - Rain , Thunderstorm Thunderstorms and Rain
6:58 PM 81.0 °F 83.8 °F 68.0 °F 65% 29.90 in 6.2 mi NNE 8.1 mph - N/A   Clear
7:58 PM 77.4 °F - 69.1 °F 76% 29.92 in 6.2 mi NNW 11.5 mph - N/A   Clear
8:58 PM 76.1 °F - 68.2 °F 76% 29.94 in 6.2 mi North 6.9 mph - N/A   Clear
9:58 PM 73.4 °F - 64.9 °F 75% 29.95 in 6.2 mi NNW 8.1 mph - N/A   Scattered Clouds
10:58 PM 70.0 °F - 63.0 °F 78% 29.96 in 6.2 mi North 5.8 mph - N/A   Clear
11:58 PM 69.1 °F - 62.8 °F 80% 29.94 in 6.2 mi NNE 4.6 mph - N/A   Clear